Location: Viterbo
(42.4170°N, 12.1000°E)
Time: 13:50:26
(UTC+02:00)

ISS - Pass Details

Date: 28 February 2019
Orbit: 411 x 421 km, 51.6° (Epoch: 16 October)

Event Time Altitude Azimuth Distance (km) Brightness Sun altitude
Exits shadow 05:26:29 38° 294° (WNW) 649 -3.3 -16.1°
Maximum altitude 05:27:12 45° 332° (NNW) 572 -3.3 -16.0°
Drops below altitude 10° 05:30:25 10° 47° (NE) 1,486 -0.2 -15.4°
Sets 05:32:34 0° 54° (NE) 2,353 1.0 -15.0°
